SIT-2086

Last updated on Thu Oct 30 2025 00:03:10 GMT+0000 (Coordinated Universal Time)

1 61764U 24199AF 25302.54476220 .00022366 00000+0 55514-3 0 9992 2 61764 97.3283 171.6848 0009172 39.7832 320.4085 15.40317340 98786
UTC large
Height (km)
Speed (km/s)
/
Latitude / Longitude
Inclination (degrees)
Orbital Period (minutes)
Azimuth
Elevation
Range (km)
Doppler Factor

Next 0 passes for location: London (51.5072 / 0.1276)

Sorry there are no passes over London.